Location: Newark
(51.2625°N, 13.3939°E)
Time: 01:38:09
(UTC+00:00)

Transit 2A Rocket - Pass Details

Date: 28 November 2019
Orbit: 594 x 909 km, 66.7° (Epoch: 13 December)

Event Time Altitude Azimuth Distance (km) Brightness Sun altitude
Exits shadow 03:26:56 11° 162° (SSE) 1,965 7.3 -30.0°
Drops below altitude 10° 03:27:05 10° 162° (SSE) 2,019 7.3 -29.9°
Sets 03:29:33 0° 157° (SSE) 2,999 8.3 -29.5°
